CCM35 LFKJ-EDDB

Flight info

Callsign CCM35
Flight time N/A
Altitude 34000
Route TORTU DCT GOLAS DCT NESTI DCT SOTOV T101 ANDEC/N0445F350 T101 BETOS/N0449F360 M726 MAH/N0445F350 DCT INPUD/N0449F360 Y102 UPALA M726 ANELA/N0444F350
Aircraft A321/M-SDE3FGHIRWY/LB1

Departure

Time 2026-05-07 23:36
Airport Ajaccio Napoléon Bonaparte airport (LFKJ)

Arrival

Time N/A
Airport Berlin Brandenburg Airport (EDDB)
Time Latitude Longitude Altitude Speed Heading
2026-05-07 23:17 41.92249 8.79744 28 ft 0 kts 344°
2026-05-07 23:31 41.92254 8.79743 28 ft 3 kts 352°
2026-05-07 23:31 41.92256 8.79754 28 ft 1 kts 88°
2026-05-07 23:31 41.92254 8.79768 28 ft 2 kts 99°
2026-05-07 23:32 41.92247 8.79780 28 ft 3 kts 129°
2026-05-07 23:32 41.92202 8.79785 28 ft 11 kts 194°
2026-05-07 23:32 41.92097 8.79728 28 ft 21 kts 206°
2026-05-07 23:32 41.91941 8.79626 27 ft 28 kts 203°
2026-05-07 23:33 41.91766 8.79523 25 ft 27 kts 205°
2026-05-07 23:33 41.91593 8.79417 25 ft 27 kts 204°
2026-05-07 23:33 41.91425 8.79346 25 ft 25 kts 179°
2026-05-07 23:33 41.91281 8.79419 27 ft 20 kts 143°
2026-05-07 23:34 41.91256 8.79551 27 ft 9 kts 41°
2026-05-07 23:34 41.91300 8.79566 27 ft 6 kts 20°
2026-05-07 23:34 41.91305 8.79569 26 ft 0 kts 21°
2026-05-07 23:35 41.91510 8.79691 23 ft 79 kts 25°
2026-05-07 23:36 41.92259 8.80162 27 ft 156 kts 24°
2026-05-07 23:36 41.93393 8.80851 380 ft 191 kts 25°
2026-05-07 23:36 41.94620 8.81597 1177 ft 196 kts 25°
2026-05-07 23:36 41.95931 8.82399 1464 ft 219 kts 25°
2026-05-07 23:37 41.96902 8.82993 1677 ft 235 kts 25°
2026-05-07 23:37 41.98448 8.83939 2124 ft 251 kts 25°
2026-05-07 23:37 42.00062 8.84926 2840 ft 258 kts 24°
2026-05-07 23:37 42.01707 8.85931 3608 ft 262 kts 24°
2026-05-07 23:38 42.03357 8.86941 4360 ft 266 kts 24°
2026-05-07 23:38 42.05057 8.87981 5107 ft 271 kts 25°
2026-05-07 23:38 42.06801 8.88994 5832 ft 276 kts 17°
2026-05-07 23:38 42.08713 8.89345 6510 ft 280 kts
2026-05-07 23:39 42.10677 8.89446 7193 ft 285 kts
2026-05-07 23:39 42.12672 8.89540 7918 ft 288 kts
2026-05-07 23:39 42.14684 8.89629 8662 ft 292 kts
2026-05-07 23:39 42.16729 8.89721 9366 ft 296 kts
2026-05-07 23:40 42.18798 8.89819 10041 ft 300 kts
2026-05-07 23:40 42.20946 8.89925 10316 ft 320 kts
2026-05-07 23:40 42.23251 8.90040 10454 ft 342 kts
2026-05-07 23:40 42.25666 8.90161 10869 ft 352 kts
2026-05-07 23:41 42.28126 8.90285 11495 ft 356 kts
2026-05-07 23:41 42.30610 8.90408 12123 ft 359 kts
2026-05-07 23:41 42.33115 8.90532 12764 ft 361 kts
2026-05-07 23:41 42.35637 8.90659 13357 ft 364 kts
2026-05-07 23:42 42.38181 8.90783 13948 ft 367 kts
2026-05-07 23:42 42.40740 8.90906 14470 ft 370 kts
2026-05-07 23:42 42.43321 8.91033 15007 ft 372 kts
2026-05-07 23:42 42.45917 8.91163 15539 ft 375 kts
2026-05-07 23:43 42.48532 8.91294 16053 ft 377 kts
2026-05-07 23:43 42.51164 8.91427 16560 ft 380 kts
2026-05-07 23:43 42.53814 8.91562 17059 ft 382 kts
2026-05-07 23:43 42.56488 8.91694 17540 ft 385 kts
2026-05-07 23:44 42.59171 8.91824 18017 ft 387 kts
2026-05-07 23:44 42.61872 8.91957 18452 ft 390 kts
2026-05-07 23:44 42.64593 8.92092 18847 ft 392 kts
2026-05-07 23:44 42.67328 8.92229 19235 ft 395 kts
2026-05-07 23:45 42.70076 8.92367 19613 ft 396 kts
2026-05-07 23:45 42.72839 8.92503 19988 ft 398 kts
2026-05-07 23:45 42.75579 8.92633 20340 ft 400 kts
2026-05-07 23:45 42.78375 8.92766 20695 ft 402 kts
2026-05-07 23:46 42.81179 8.92905 21046 ft 404 kts
2026-05-07 23:46 42.84005 8.93048 21397 ft 406 kts
2026-05-07 23:46 42.86843 8.93194 21745 ft 409 kts
2026-05-07 23:46 42.89693 8.93342 22101 ft 410 kts
2026-05-07 23:47 42.92551 8.93490 22462 ft 412 kts
2026-05-07 23:47 42.95423 8.93637 22812 ft 414 kts
2026-05-07 23:47 42.98306 8.93782 23167 ft 416 kts
2026-05-07 23:47 43.01207 8.93927 23515 ft 418 kts
2026-05-07 23:48 43.04130 8.94072 23805 ft 420 kts
2026-05-07 23:48 43.07060 8.94219 24069 ft 423 kts
2026-05-07 23:48 43.10010 8.94369 24341 ft 425 kts 359°
2026-05-07 23:48 43.12975 8.94518 24606 ft 428 kts 359°
2026-05-07 23:49 43.15926 8.94666 24863 ft 431 kts 359°
2026-05-07 23:49 43.18926 8.94816 25131 ft 433 kts 359°
2026-05-07 23:49 43.21946 8.94967 25391 ft 436 kts 359°
2026-05-07 23:49 43.24987 8.95120 25647 ft 439 kts 359°
2026-05-07 23:50 43.28046 8.95275 25899 ft 441 kts 359°
2026-05-07 23:50 43.31123 8.95431 26148 ft 444 kts 359°
2026-05-07 23:50 43.34219 8.95590 26395 ft 447 kts 359°
2026-05-07 23:50 43.37332 8.95940 26631 ft 452 kts
2026-05-07 23:51 43.40407 8.96949 26871 ft 458 kts 16°
2026-05-07 23:51 43.43379 8.98595 27104 ft 462 kts 22°
2026-05-07 23:51 43.46325 9.00396 27339 ft 465 kts 21°
2026-05-07 23:51 43.49291 9.02200 27571 ft 468 kts 21°
2026-05-07 23:52 43.52279 9.04013 27785 ft 470 kts 21°
2026-05-07 23:52 43.55285 9.05833 28025 ft 473 kts 21°
2026-05-07 23:52 43.58304 9.07660 28250 ft 475 kts 21°
2026-05-07 23:52 43.61338 9.09498 28470 ft 478 kts 21°
2026-05-07 23:53 43.64389 9.11356 28684 ft 480 kts 21°
2026-05-07 23:53 43.67457 9.13238 28912 ft 483 kts 21°
2026-05-07 23:53 43.70531 9.15134 29117 ft 485 kts 21°
2026-05-07 23:53 43.73622 9.17041 29330 ft 488 kts 21°
2026-05-07 23:54 43.76730 9.18952 29541 ft 490 kts 21°
2026-05-07 23:54 43.79849 9.20868 29750 ft 492 kts 21°
2026-05-07 23:54 43.82981 9.22795 29933 ft 493 kts 21°
2026-05-07 23:54 43.86082 9.24705 30118 ft 495 kts 20°
2026-05-07 23:55 43.89247 9.26656 30250 ft 498 kts 20°
2026-05-07 23:55 43.92422 9.28617 30397 ft 499 kts 20°
2026-05-07 23:55 43.95602 9.30584 30555 ft 501 kts 20°
2026-05-07 23:55 43.98782 9.32553 30771 ft 500 kts 20°
2026-05-07 23:56 44.01961 9.34524 31001 ft 500 kts 20°
2026-05-07 23:56 44.05135 9.36492 31238 ft 500 kts 20°
2026-05-07 23:56 44.08312 9.38464 31494 ft 499 kts 20°
2026-05-07 23:56 44.11489 9.40435 31724 ft 498 kts 20°
2026-05-07 23:57 44.14653 9.42401 31946 ft 498 kts 20°
2026-05-07 23:57 44.17789 9.44355 32167 ft 498 kts 20°